User: anonymous   Login
Location: Carrizo Plain National Monument
(35.0903°N, 119.7316°W)
Time: 20:24:27
(UTC-07:00)
Language:

CUBEBUG 2 - Orbit

View from above orbital plane
View from above orbital plane
View from above satellite
View from above satellite

Ground track
Ground track

The orbit data is extracted from the following two-line orbital elements,

1 39440U 13066AA  20092.74880916  .00000190  00000-0  33481-4 0  9995
2 39440  97.6260  79.5140 0078932 228.6074 130.8333 14.75980519342465
Epoch (UTC): 01 April 2020 17:58:17
Eccentricity: 0.0078932
inclination: 97.6260°
perigee height: 586 km
apogee height: 697 km
right ascension of ascending node: 79.5140°
argument of perigee: 228.6074°
revolutions per day: 14.75980519
mean anomaly at epoch: 130.8333°
orbit number at epoch: 34246

The dashed part of the orbit path shows where the satellite is in the earth's shadow,  

DLR